Location: Asheville, NC
(35.6000°N, 82.5500°W)
Time: 18:46:11
(UTC-04:00)

Vanguard 2 - Pass Details

Date: 09 March 2018
Orbit: 553 x 2939 km, 32.9° (Epoch: 20 June)

Event Time Altitude Azimuth Distance (km) Brightness Sun altitude
Rises 16:16:28 0° 277° (W) 6,790 13.2 25.7°
Reaches altitude 10° 16:21:05 10° 276° (W) 5,752 13.1 24.9°
Maximum altitude 16:38:26 71° 197° (SSW) 2,534 10.7 21.7°
Drops below altitude 10° 16:50:17 10° 116° (ESE) 4,102 10.9 19.4°
Sets 16:53:00 0° 114° (ESE) 4,820 11.2 18.9°
